Location: Bosdarros
(43.2167°N, 0.3667°W)
Time: 02:55:48
(UTC+00:00)

Cosmos 2297 Rocket - Pass Details

Date: 22 April 2021
Orbit: 838 x 845 km, 71.0° (Epoch: 15 May)

Event Time Altitude Azimuth Distance (km) Brightness Sun altitude
Rises 20:38:55 0° 210° (SSW) 3,378 5.3 -17.9°
Reaches altitude 10° 20:41:21 10° 213° (SSW) 2,449 4.5 -18.2°
Maximum altitude 20:46:57 70° 296° (WNW) 897 2.5 -19.0°
Drops below altitude 10° 20:52:36 10° 21° (NNE) 2,469 4.9 -19.8°
Sets 20:55:05 0° 23° (NNE) 3,408 5.6 -20.1°
